Regional Weather Roundup
Issued by NWS Austin/San Antonio, TX

Home | Current Version | Previous Version | Text Only | Print | Product List | Glossary On
Versions: 1 2 3 4 5 6 7 8 9 10 11 12 13 14 15 16 17 18 19 20 21 22 23 24 25 26 27 28 29 30 31 32 33 34 35 36 37 38 39 40 41 42 43 44 45 46 47 48 49 50
000
ASUS44 KEWX 052302
RWREWX
SOUTH TEXAS REGIONAL WEATHER ROUNDUP
NATIONAL WEATHER SERVICE AUSTIN/SAN ANTONIO TX
600 PM CDT WED AUG 05 2020

NOTE: "FAIR" INDICATED FEW OR NO CLOUDS BELOW 12,000 FEET WITH NO
SIGNIFICANT WEATHER AND/OR OBSTRUCTIONS TO VISIBILITY.

* - THESE STATIONS ARE NOT NWS OR FAA STATIONS...AND ARE NOT SUBJECT
    TO NWS AND FAA QUALITY CONTROL.

TXZ171-172-183>190-060000-
TEXAS HILL COUNTRY AND EDWARDS PLATEAU

CITY           SKY/WX    TMP DP  RH WIND       PRES   REMARKS
JUNCTION       SUNNY     99  58  25 S14G23    29.92F HX  98
*LLANO         SUNNY    100  55  22 SE10G20   29.88F HX  99
BURNET         SUNNY     97  57  26 S13G23    29.93F HX  96
*HORSESHOE BAY SUNNY     99  57  25 S8G17     29.91F HX  97
*LAGO VISTA    SUNNY     96  63  32 S8G20     29.93F HX  97
*KERRVILLE     SUNNY     96  60  30 S17       29.94F HX  95
*FREDERICKSBRG SUNNY     94  54  25 CALM      29.95F HX  92
*ROCKSPRINGS   SUNNY     93  57  29 S17       30.02F HX  92
*BOERNE        SUNNY     91  59  33 S10       29.95F HX  90
*CASTROVILLE   SUNNY     98  57  25 S14G21    29.92F HX  97
HONDO          SUNNY     96  62  32 S15G23    29.91F HX  97
*UVALDE        SUNNY     98  60  28 S14G21    29.92F HX  97
DEL RIO        SUNNY    103  61  25 S16G28    29.86F HX 104
*LAUGHLIN AFB  SUNNY    102  57  22 SE17G24   29.87F HX 101
*SPOFFORD      NOT AVBL
*EAGLE PASS    SUNNY    102  59  24 SE12      29.88F HX 102
CARRIZO SPRGS  SUNNY     99  63  30 SE14      29.88F HX 100
$$

TXZ173-191>194-202-209-217>225-228-060000-
CENTRAL AND SOUTH CENTRAL TEXAS

CITY           SKY/WX    TMP DP  RH WIND       PRES   REMARKS
GEORGETOWN     SUNNY     98  65  33 S10G18    29.92F HX 101
*TAYLOR        MOSUNNY   99  66  33 S10       29.90S HX 102
AUSTIN/BERGSTM MOSUNNY   99  67  35 S12G21    29.88F HX 103
AUSTIN/MABRY   SUNNY     99  62  29 SE10G21   29.91F HX 100
*PFLUGERVILLE  SUNNY     99  63  30 S12       29.91F HX 100
SAN MARCOS     SUNNY     98  66  34 S16G22    29.90F HX 101
NEW BRAUNFELS  SUNNY     99  63  30 S12       29.89F HX 101
*RANDOLPH AFB  SUNNY     97  62  31 S10G21    29.90F HX  98
*SEGUIN        NOT AVBL
SAN ANTONIO    SUNNY     98  62  30 S14       29.91F HX  99
STINSON FIELD  SUNNY     95  64  35 S16G23    29.88F HX  97
*KELLY FIELD   SUNNY     98  63  31 SE14G21   29.89F HX  99
*PLEASANTON    SUNNY     98  66  35 S10G18    29.90F HX 101
*KENEDY        SUNNY     96  64  34 S13G20    29.91F HX  98
*LA GRANGE     MOSUNNY   97  69  39 S12       29.89F HX 103
*GIDDINGS      SUNNY     99  66  34 S7        29.92S HX 103
*GONZALES      SUNNY     99  69  38 S12G18    29.90F HX 105
$$

TXZ163>164-176>182-195>201-210>213-226-227-235-060000-
SOUTHEAST TEXAS

CITY           SKY/WX    TMP DP  RH WIND       PRES   REMARKS
COLLEGE STN    SUNNY     95  69  42 S7        29.91F HX 100
*BRYAN         MOSUNNY   95  69  42 S9        29.92F HX 101
*CALDWELL      MOSUNNY   96  68  40 S15       29.91F HX 100
*CROCKETT      NOT AVBL
*BRENHAM       MOSUNNY   94  73  50 SE7       29.92S HX 103
HUNTSVILLE     MOSUNNY   96  69  41 S8        29.92F HX 102
CONROE         MOSUNNY   92  71  50 SE10      29.92F HX  98
HOUSTON BUSH   MOSUNNY   95  71  45 S7        29.91F HX 102
HOUSTON HOBBY  MOSUNNY   94  66  39 S14       29.91F HX  97
*HOUSTON SW AP MOSUNNY   90  71  52 SW5       29.93S HX  96
PEARLAND       MOSUNNY   93  65  39 SW6       29.93F HX  95
HOUSTON HOOKS  MOSUNNY   92  70  48 SW7       29.91F HX  97
ELLINGTON FLD  MOSUNNY   91  68  46 S13       29.91F HX  95
SUGAR LAND     MOSUNNY   92  68  45 S10       29.91F HX  96
*HOUSTON EXEC  MOSUNNY   93  72  49 S12       29.93S HX 100
*CLEVELAND MUN MOSUNNY   90  76  64 CALM      29.94S HX 101
*WHARTON       NOT AVBL
*COLUMBUS      FAIR      92  68  45 S9        29.92F HX  96
*EAGLE LAKE    SUNNY     96  67  38 S8        29.92F HX 100
$$

TXZ214>216-236>238-060000-
THE UPPER TEXAS COAST

CITY           SKY/WX    TMP DP  RH WIND       PRES   REMARKS
*ORANGE        TSTM      83  79  87 W5        29.96S HX  93
PORT ARTHUR    MOSUNNY   89  76  65 SW8       29.92F THUNDER HX 100
GALVESTON      SUNNY     89  75  63 S13       29.94F HX  99
ANGLETON       SUNNY     90  70  51 S9        29.93F HX  95
*BAY CITY      SUNNY     89  70  52 S7        29.93F HX  95
PALACIOS       SUNNY     89  74  60 S12       29.92F HX  98
$$

TXZ229>234-239>247-060000-
TEXAS COASTAL BEND AND RIO GRANDE PLAINS

CITY           SKY/WX    TMP DP  RH WIND       PRES   REMARKS
VICTORIA       SUNNY     93  69  45 S12       29.91F HX  98
*BEEVILLE      SUNNY     94  74  51 SE12      29.91F HX 103
ROCKPORT       MOSUNNY   89  75  63 SE10      29.92F HX  99
*PORT ARANSAS  SUNNY     89  74  62 S12       29.93F HX  97
*PORT LAVACA   SUNNY     92  74  56 S8        29.92F HX 101
*INGLESIDE     MOSUNNY   90  78  68 S12       29.92F HX 104
CORPUS CHRISTI MOSUNNY   90  73  57 SE10G20   29.91F HX  98
CORPUS NAS     NOT AVBL
*ROBSTOWN      SUNNY     94  71  46 S9G17     29.92F HX 101
ALICE          SUNNY     94  73  50 S14       29.90F HX 103
KINGSVILLE NAS MOSUNNY   92  74  55 SE12      29.90F HX 101
COTULLA        SUNNY     98  66  34 SE15      29.88F HX 101
LAREDO         PTSUNNY   97  69  40 S13G20    29.88F HX 103
$$

TXZ248>255-060000-
DEEP SOUTH TEXAS

CITY           SKY/WX    TMP DP  RH WIND       PRES   REMARKS
BROWNSVILLE    MOSUNNY   92  76  59 SE14      29.90F HX 104
PORT ISABEL    SUNNY     89  76  65 E17       29.90F HX 100
HARLINGEN      MOSUNNY   91  76  61 SE14      29.91F HX 103
*HEBBRONVILLE  MOSUNNY   93  61  34 S9        29.92F HX  93
MCALLEN        MOSUNNY   94  73  50 SE13      29.89F HX 103
*WESLACO       MOSUNNY   93  73  53 S12       29.89F HX 101
FALFURRIAS     MOSUNNY   87  75  66 E12G18    29.90F HX  97
EDINBURG       NOT AVBL
*ZAPATA        SUNNY     96  66  36 S9        29.90  HX  99
$$

TXZ213>215-236>238-242>244-246-247-251-254-255-060000-
CMAN STATIONS

STATION/POSITION TIME  TEMP    WIND        PRES    WAVE
                       AIR SEA DIR/SP/G            HT/PER
                 (UTC) (F)     (DEG/KT/KT) (MB)    (FT/S)
SABINE PASS      2230   88 88              1016.2
NORTH JETTY/GLS  2230   86 88              1012.6
EAGLE POINT      2230   89 91              1013.1
MORGANS POINT    2230   91 87              1013.3
PORT O`CONNOR    2230   85 90  170/  7/ 12 1013.6
PORT ARANSAS     2200   86 90  140/ 12/ 13 1014.0
MALAQUITE BEACH  2230   85     110/ 13/ 14   N/A
BAFFIN BAY       2230   86 93   90/ 12/ 14 1013.7
PORT ISABEL      2230   88 88  130/  8/ 14 1015.1
$$




USA.gov is the U.S. government's official web portal to all federal, state and local government web resources and services.